Location: Trois-Rivi�res
(46.3500°N, 72.5500°W)
Time: 18:23:36
(UTC-04:00)

Daily predictions for brighter satellites

Satellite Brightness Start Highest point End
(mag) Time Altitude Azimuth Time Altitude Azimuth Time Altitude Azimuth
Cosmos 2056 Rocket 3.6 18:17:56 10° NNW 18:23:19 86° ENE 18:28:34 10° SSE
SL-16 R/B 2.6 18:19:32 10° NNW 18:25:13 74° WSW 18:30:51 10° SSE
Meteor 1-28 Rocket 3.3 18:22:37 10° NNE 18:26:23 58° E 18:30:06 10° S
SPOT 3 Rocket 3.9 18:21:32 10° SE 18:26:26 45° ENE 18:31:24 10° N
Abrixas rocket 2.2 18:27:48 10° WSW 18:31:05 85° SSE 18:34:24 10° ENE
CZ-4 R/B 4.4 18:27:27 10° SSE 18:31:33 67° ENE 18:35:41 10° N
MOS 1 4.3 18:28:33 10° SSE 18:34:08 65° ENE 18:39:47 10° N
SL-8 Rocket 4.0 18:28:51 10° S 18:35:02 81° E 18:41:18 10° N
Cosmos 1400 Rocket 2.8 18:32:59 10° N 18:37:01 60° ENE 18:40:57 10° SSE
Cosmos 1908 4.4 18:36:37 10° SE 18:39:44 23° E 18:42:50 10° NE
Cosmos 1452 Rocket 3.7 18:35:52 10° NNW 18:41:02 52° ENE 18:46:09 10° SE
COSMO-SKYMED 1 2.8 18:37:14 10° NNE 18:41:28 47° E 18:45:39 10° S
Cosmos 2237 Rocket 3.9 18:38:43 10° N 18:42:11 16° NE 18:45:25 11° ENE
METEOR-M 4.1 18:37:37 10° SSE 18:42:56 71° ENE 18:48:16 10° N
BREEZE-M DEB (TANK) 4.0 18:27:11 10° WSW 18:42:58 81° S 18:47:11 12° E
CZ-4 R/B 2.2 18:39:07 10° S 18:43:16 58° W 18:47:23 10° NNW
H-2A R/B 4.0 18:45:45 10° ESE 18:48:46 22° ENE 18:51:49 10° NNE
SL-24 R/B - RUBIN 2 3.7 18:44:36 10° NW 18:49:39 74° NE 18:54:08 10° SE
SL-16 R/B 4.3 18:50:43 10° NNE 18:51:07 10° NNE 18:51:31 10° NE
Cosmos 864 Rocket 4.5 18:45:37 10° S 18:51:56 78° E 18:58:15 10° N
NOAA 12 4.2 18:47:04 10° SSE 18:52:15 58° ENE 18:57:29 10° N
BREEZE-M DEB (TANK) 3.5 18:51:44 10° W 18:53:37 21° SW 18:55:14 10° SSE
Cosmos 1805 Rocket 4.5 18:53:09 10° NNE 18:56:54 27° ENE 19:00:38 10° SE
Cosmos 2218 Rocket 4.1 18:52:49 10° S 18:58:59 82° W 19:05:11 10° N
Aureole 2 Rocket 4.1 18:58:35 10° N 19:01:32 21° ENE 19:02:42 18° E
Cosmos 44 Rocket 4.4 18:59:53 10° SSE 19:03:25 21° ESE 19:05:04 18° E
Cosmos 1626 2.7 19:00:19 10° NNW 19:04:02 63° W 19:07:43 10° S
USA 234 4.1 18:59:17 13° ENE 19:04:34 37° N 19:10:29 10° NW
Cosmos 1727 Rocket 4.1 19:00:08 10° N 19:06:32 85° W 19:12:52 10° S
COSMOS 2428 2.9 19:01:01 10° NNW 19:06:33 49° ENE 19:12:03 10° SE
Cosmos 2360 Rocket 2.3 19:01:05 10° NNW 19:06:46 82° WSW 19:12:25 10° SSE
FREGAT/IRIS 3.4 19:05:28 18° ESE 19:07:01 30° ENE 19:09:41 10° N
YAOGAN 1 3.8 19:03:50 10° S 19:07:59 46° W 19:12:10 10° NNW
Cosmos 2333 Rocket 3.0 19:04:38 10° NNW 19:09:44 31° NE 19:12:55 19° E
Cosmos 2322 Rocket 4.2 19:09:02 10° NW 19:13:55 31° WSW 19:18:47 10° SSW
Cosmos 1633 Rocket 4.2 19:10:27 10° NNE 19:13:58 23° ENE 19:14:31 22° E
Aureole 2 4.0 19:11:01 10° NNW 19:14:03 79° ENE 19:17:22 10° SSE
Cosmos 1833 4.1 19:09:08 10° SSW 19:14:49 80° ESE 19:20:29 10° NNE
SL-8 R/B 3.9 19:10:37 10° SW 19:15:19 54° SSE 19:18:06 23° E
Iridium 4 Rocket 3.8 19:10:57 10° SSE 19:16:19 54° E 19:22:01 10° N
Cosmos 2219 3.9 19:13:30 10° SSE 19:18:29 32° ESE 19:23:20 11° NE
GP-B 3.9 19:14:32 10° N 19:18:54 54° W 19:23:12 10° SSW
Cosmos 1315 Rocket 2.8 19:16:21 10° NNW 19:20:26 87° W 19:24:31 10° S
Cosmos 2151 3.7 19:17:16 10° NNW 19:21:29 57° W 19:25:39 10° S
ATLAS 5 CENTAUR R/B 4.4 19:19:46 10° NNW 19:22:16 13° N 19:24:54 10° NNE
Cosmos 1048 Rocket 4.3 19:18:23 10° S 19:23:11 41° ESE 19:27:58 10° NE
Cosmos 2123 Rocket 4.4 19:18:07 10° N 19:23:56 39° ENE 19:29:45 10° SE
Cosmos 1420 Rocket 4.0 19:21:10 10° NNW 19:26:32 89° WSW 19:31:49 10° SSE
FengYun 1-2 T 4.2 19:21:22 10° SSE 19:26:47 62° ENE 19:32:12 10° N
Thor Agena Rocket 3.6 19:22:28 10° NNE 19:27:31 54° ESE 19:32:26 10° S
SKYMED 2 4.3 19:25:16 10° N 19:29:32 55° WNW 19:33:46 10° SSW
Meteor 2-1 Rocket 4.4 19:24:08 10° SSW 19:29:56 80° WNW 19:35:53 10° N
MOS 1-B Rocket 4.3 19:28:39 21° ESE 19:32:02 41° ENE 19:37:43 10° N
Envisat 3.8 19:32:18 28° ENE 19:32:53 28° ENE 19:37:12 10° N
CZ-4C R/B 2.7 19:28:30 10° S 19:33:11 34° ESE 19:34:52 28° E
APEX 3.8 19:32:27 10° S 19:34:23 28° SSE 19:34:23 28° SSE
Cosmos 2322 4.3 19:31:23 10° NNW 19:37:03 60° WSW 19:42:38 10° S
FENGYUN 3A 4.0 19:32:11 10° S 19:37:33 68° WSW 19:42:59 10° NNW
RESURS DK-1 3.9 19:36:59 10° NW 19:40:47 36° WSW 19:44:35 10° S
Cosmos 158 Rocket 3.8 19:38:57 10° SSW 19:43:58 75° ESE 19:49:11 10° NNE
Lacrosse 5 rocket 3.4 19:42:53 10° WNW 19:46:16 21° N 19:48:13 16° NNE
SJ-6B 2.5 19:45:28 39° SSE 19:46:45 74° ENE 19:50:30 10° N
Cosmos 2221 2.6 19:43:34 10° SSW 19:47:53 76° W 19:52:15 10° N
ALOS 3.3 19:43:49 10° S 19:48:19 47° W 19:52:51 10° NNW
CSL-04 DEB 4.3 19:48:13 34° SSE 19:49:55 74° ENE 19:53:57 10° N
Cosmos 921 Rocket 4.5 19:50:18 10° NNW 19:54:27 38° WSW 19:58:30 10° S
Atlas Centaur 2 4.3 19:53:57 10° SSW 19:56:07 12° S 19:58:05 11° SSE
Cosmos 2219 Rocket 2.1 19:50:32 10° NNW 19:56:09 73° ENE 19:58:27 37° SE
Cosmos 1331 Rocket 4.1 19:53:57 10° NNW 19:59:04 49° ENE 19:59:26 48° ENE
Resurs 01 Rocket 2.1 19:59:59 44° NE 19:59:59 44° NE 20:03:31 10° N
HJ-1C 3.5 20:00:00 76° WNW 20:00:00 76° WNW 20:03:20 10° NNW
Gbstr 26 Del rocket 3.6 19:55:07 10° WNW 20:00:14 84° SSW 20:02:17 43° SE
Cosmos 2084 3.8 20:02:01 10° NNW 20:04:56 44° N 20:04:56 44° N
Abrixas rocket 3.3 20:04:37 10° W 20:07:04 42° NW 20:07:04 42° NW
Cosmos 1269 Rocket 3.9 20:02:59 10° SSW 20:08:16 87° ESE 20:13:36 10° NNE
USA 267 3.4 20:09:11 45° ESE 20:10:22 49° SE 20:16:40 10° SSW
Cosmos 1726 2.5 20:07:41 10° SSW 20:11:22 62° W 20:15:03 10° N
Cosmos 1535 Rocket 4.4 20:05:58 10° S 20:12:07 83° W 20:18:15 10° N
Resurs 1-3 4.2 20:13:32 45° NNE 20:13:32 45° NNE 20:16:45 10° N
Meteor 2-10 3.8 20:09:04 10° S 20:14:05 77° E 20:19:12 10° NNE
NOSS 0 Rocket 3.8 20:13:37 10° NNW 20:19:51 84° ENE 20:21:21 54° SE
Cosmos 2098 Rocket 4.1 20:17:15 10° SSW 20:21:38 53° WNW 20:27:15 10° N
H-2A R/B 4.4 20:19:22 10° SSW 20:22:50 33° W 20:26:26 10° NNW
Cosmos 44 3.4 20:20:45 10° SW 20:24:23 60° WSW 20:24:23 60° WSW
Cosmos 2237 Rocket 2.1 20:21:38 10° NNW 20:27:16 70° NE 20:27:16 70° NE
In-Cosmos 22 Rocket 4.2 20:21:45 10° NNW 20:27:29 82° W 20:29:30 43° S
Sich 1 3.7 20:23:40 10° NNW 20:27:55 53° W 20:28:51 44° SW
Meteor 2-3 Rocket 4.0 20:25:46 10° N 20:30:28 53° NNE 20:30:28 53° NNE
USA 32 4.2 20:28:10 10° N 20:32:27 59° N 20:32:27 59° N
H-2A R/B 4.5 20:37:34 11° NNE 20:37:34 11° NNE 20:37:48 10° NNE
Aureole 2 Rocket 4.2 20:33:05 10° NW 20:36:10 36° W 20:36:10 36° W
Spot 2 Rocket 3.6 20:37:27 69° NNW 20:37:27 69° NNW 20:41:56 10° NNW
SL-16 R/B 3.3 20:31:39 10° NNW 20:35:24 33° NNE 20:35:24 33° NNE
Meteor 2-2 Rocket 4.1 20:33:59 10° S 20:39:43 87° WNW 20:45:24 10° N
Cosmos 1110 Rocket 4.3 20:38:24 10° NNW 20:43:41 65° WSW 20:43:46 65° WSW
Cosmos 44 Rocket 3.9 20:39:57 10° SW 20:43:51 50° W 20:43:51 50° W
USA 234 3.2 20:46:39 64° NE 20:46:58 65° NNE 20:53:27 10° NW
COSMOS 2428 4.5 20:45:46 10° NW 20:50:32 28° WSW 20:54:29 14° SSW
Cosmos 1980 3.8 20:44:58 10° NNW 20:50:12 70° WNW 20:50:12 70° WNW
Cosmos 1633 Rocket 4.4 20:47:48 10° NNW 20:51:39 37° W 20:51:39 37° W
Cosmos 2333 Rocket 2.9 20:48:42 10° NW 20:54:14 50° WSW 20:54:58 47° SW
CZ-3A R/B 3.8 20:40:37 10° WNW 21:00:23 81° NNE 21:01:30 68° E
Cosmos 2219 4.1 20:56:56 10° SW 21:02:27 46° WNW 21:05:22 26° N
ATLAS 5 CENTAUR R/B 4.2 21:05:20 10° NNW 21:08:01 18° N 21:08:01 18° N
Envisat 4.2 21:12:32 39° WNW 21:12:32 39° WNW 21:16:33 10° NNW
CZ-4C R/B 3.3 21:16:15 10° WSW 21:20:08 40° W 21:20:08 40° W
Lacrosse 5 rocket 4.4 21:23:24 10° NW 21:23:54 12° NW 21:23:54 12° NW
Resurs 01 Rocket 4.4 21:37:34 16° WNW 21:37:34 16° WNW 21:39:07 10° NW
Cosmos 2219 Rocket 4.4 21:35:45 10° WNW 21:39:27 18° W 21:40:12 18° WSW
